FW9473 Weather Reports


time (UTC)temp
C
wind
direction
speed
KPH
gust
KPH
rain 1hr
cm
rain 24hr
cm
rain mn
cm
humidity
%
barometer
mb
20260505211551 26 248 6.4 22.5 0.00 0.00 0.00 39 1016.6
20260505210046 26 217 4.8 19.3 0.00 0.00 0.00 39 1016.5
20260505204549 26 0 1.6 19.3 0.00 0.00 0.00 39 1016.6
20260505203052 26 244 11.3 25.7 0.00 0.00 0.00 38 1016.7
20260505201551 26 258 4.8 20.9 0.00 0.00 0.00 39 1017.0
20260505200057 26 129 6.4 19.3 0.00 0.00 0.00 39 1017.0
20260505194549 26 43 4.8 25.7 0.00 0.00 0.00 38 1017.3
20260505193046 26 245 8.0 25.7 0.00 0.00 0.00 39 1017.5
20260505191547 26 129 6.4 20.9 0.00 0.00 0.00 39 1018.1
20260505190049 26 0 4.8 19.3 0.00 0.00 0.00 39 1018.1
20260505184554 26 236 9.7 22.5 0.00 0.00 0.00 40 1018.3
20260505183059 25 211 8.0 19.3 0.00 0.00 0.00 41 1018.3
20260505181552 25 151 4.8 24.1 0.00 0.00 0.00 42 1018.5
20260505180056 25 265 4.8 17.7 0.00 0.00 0.00 41 1018.7
20260505174559 25 0 6.4 25.7 0.00 0.00 0.00 41 1019.2
20260505173054 25 218 6.4 20.9 0.00 0.00 0.00 39 1019.3
20260505171551 24 221 9.7 24.1 0.00 0.00 0.00 40 1019.6
20260505170057 24 224 9.7 24.1 0.00 0.00 0.00 41 1019.3
20260505164543 24 218 6.4 22.5 0.00 0.00 0.00 45 1019.3
20260505163055 23 0 0.0 17.7 0.00 0.00 0.00 48 1019.4
20260505161604 23 0 0.0 12.9 0.00 0.00 0.00 53 1019.7
20260505153059 21 0 4.8 14.5 0.00 0.00 0.00 60 1020.1
20260505151604 20 138 0.0 8.0 0.00 0.00 0.00 64 1020.2
20260505140110 17 0 0.0 6.4 0.00 0.00 0.00 70 1020.0
20260505124557 14 0 0.0 0.0 0.00 0.00 0.00 82 1019.5
20260505123100 13 0 0.0 0.0 0.00 0.00 0.00 84 1019.7
20260505121601 13 0 0.0 0.0 0.00 0.00 0.00 84 1019.4
20260505120057 11 0 0.0 0.0 0.00 0.00 0.00 87 1019.4
20260505114605 10 0 0.0 0.0 0.00 0.00 0.00 88 1019.2
20260505113113 10 0 0.0 0.0 0.00 0.00 0.00 90 1019.1
20260505111549 9 0 0.0 0.0 0.00 0.00 0.00 90 1018.8
20260505101553 8 0 0.0 0.0 0.00 0.00 0.00 89 1018.7
20260505100052 9 0 0.0 0.0 0.00 0.00 0.00 88 1018.4
20260505094551 10 0 0.0 0.0 0.00 0.00 0.00 87 1018.4
20260505093057 10 0 0.0 0.0 0.00 0.00 0.00 85 1018.5
20260505091603 10 0 0.0 1.6 0.00 0.00 0.00 83 1018.4
20260505090048 11 0 0.0 1.6 0.00 0.00 0.00 83 1018.3
20260505084552 10 0 0.0 0.0 0.00 0.00 0.00 84 1018.3
20260505083056 10 0 0.0 0.0 0.00 0.00 0.00 83 1018.1
20260505081604 11 0 0.0 0.0 0.00 0.00 0.00 81 1018.1
20260505080052 11 0 0.0 0.0 0.00 0.00 0.00 79 1018.2
20260505074549 12 0 0.0 0.0 0.00 0.00 0.00 77 1018.0
20260505073111 11 0 0.0 0.0 0.00 0.00 0.00 80 1018.1
20260505071600 11 0 0.0 0.0 0.00 0.00 0.00 79 1018.2
20260505064553 12 0 0.0 0.0 0.00 0.00 0.00 77 1018.0
20260505063055 12 0 0.0 0.0 0.00 0.00 0.00 74 1017.7
20260505061550 12 0 0.0 0.0 0.00 0.00 0.00 72 1018.0
20260505060051 12 0 0.0 0.0 0.00 0.00 0.00 73 1018.0
20260505054554 12 0 0.0 0.0 0.00 0.00 0.00 71 1017.9
20260505053056 12 0 0.0 0.0 0.00 0.00 0.00 72 1018.2
20260505051602 13 0 0.0 0.0 0.00 0.00 0.00 70 1018.2
20260505050104 13 0 0.0 0.0 0.00 0.00 0.00 72 1018.4
20260505041559 13 0 0.0 0.0 0.00 0.00 0.00 71 1018.3
20260505040051 14 0 0.0 0.0 0.00 0.00 0.00 71 1018.5
20260505034553 15 0 0.0 1.6 0.00 0.00 0.00 68 1018.5
20260505033043 15 0 0.0 0.0 0.00 0.00 0.00 65 1018.5
20260505031553 16 0 0.0 0.0 0.00 0.00 0.00 63 1018.4
20260505030045 16 0 0.0 0.0 0.00 0.00 0.00 62 1018.5
20260505024600 16 0 0.0 0.0 0.00 0.00 0.00 63 1018.5
20260505023054 16 0 0.0 0.0 0.00 0.00 0.00 64 1018.4
20260505021549 16 0 0.0 0.0 0.00 0.00 0.00 62 1018.3
20260505020049 16 0 0.0 0.0 0.00 0.00 0.00 62 1018.3
20260505014555 17 0 0.0 0.0 0.00 0.00 0.00 61 1018.1
20260505013111 17 0 0.0 0.0 0.00 0.00 0.00 60 1018.0
20260505011550 18 0 0.0 0.0 0.00 0.00 0.00 56 1017.8
20260505004552 18 0 0.0 0.0 0.00 0.00 0.00 58 1017.5
20260505003053 18 0 0.0 0.0 0.00 0.00 0.00 55 1017.5
20260505001548 20 0 0.0 0.0 0.00 0.00 0.00 54 1017.2
20260505000059 21 0 0.0 0.0 0.00 0.00 0.00 50 1017.4
20260504234551 21 0 0.0 1.6 0.00 0.00 0.00 47 1017.0
20260504233054 22 0 0.0 1.6 0.00 0.00 0.00 47 1017.1
20260504231552 22 0 0.0 4.8 0.00 0.00 0.00 42 1016.8
20260504230059 23 247 1.6 6.4 0.00 0.00 0.00 40 1016.9
20260504224549 23 0 0.0 4.8 0.00 0.00 0.00 38 1016.8
20260504223055 23 0 0.0 6.4 0.00 0.00 0.00 38 1017.0
20260504221548 24 247 4.8 16.1 0.00 0.00 0.00 37 1017.0
20260504220053 24 0 4.8 14.5 0.00 0.00 0.00 37 1017.1
20260504214552 24 251 6.4 16.1 0.00 0.00 0.00 34 1016.9
20260504213051 24 149 3.2 14.5 0.00 0.00 0.00 35 1017.0